Location: Augustenthal
(51.7167°N, 10.2833°E)
Time: 08:23:15
(UTC+00:00)

Okean 1-7 - Pass Details

Date: 18 May 2021
Orbit: 591 x 617 km, 82.5° (Epoch: 20 June)

Event Time Altitude Azimuth Distance (km) Brightness Sun altitude
Exits shadow 22:21:20 31° 201° (SSW) 1,051 3.8 -17.6°
Maximum altitude 22:23:18 76° 281° (W) 624 3.0 -17.6°
Drops below altitude 10° 22:27:39 10° 8° (N) 1,961 6.7 -17.8°
Sets 22:29:53 0° 10° (N) 2,873 7.8 -17.8°
